This is the latest recevied weather packets stored in our database for station/object DL9GRB-13. If no packets are shown the sender has not sent any weather packets the latest 10 day(s).
| Time | Temp. | Humidity | Pressure | Rain* | Wind** | Luminosity | Snow |
|---|---|---|---|---|---|---|---|
| 1777547646 | 17.22° C | 39% | 1030.9 hPa | 0 mm | - | 783 W/m² | - |
| 1777547466 | 17.22° C | 38% | 1031 hPa | 0 mm | - | 797 W/m² | - |
| 1777547286 | 17.22° C | 38% | 1031.2 hPa | 0 mm | - | 789 W/m² | - |
| 1777547106 | 17.22° C | 39% | 1030.8 hPa | 0 mm | - | 796 W/m² | - |
| 1777546926 | 17.22° C | 38% | 1031 hPa | 0 mm | - | 788 W/m² | - |
| 1777546746 | 17.22° C | 38% | 1031 hPa | 0 mm | - | 782 W/m² | - |
| 1777546566 | 17.22° C | 38% | 1031 hPa | 0 mm | - | 765 W/m² | - |
| 1777546386 | 17.22° C | 38% | 1030.8 hPa | 0 mm | - | 762 W/m² | - |
| 1777546026 | 17.22° C | 35% | 1031.1 hPa | 0 mm | - | 751 W/m² | - |
| 1777545846 | 17.22° C | 37% | 1031.1 hPa | 0 mm | - | 713 W/m² | - |
| 1777545486 | 17.22° C | 34% | 1030.9 hPa | 0 mm | - | 451 W/m² | - |
| 1777545306 | 16.67° C | 36% | 1031 hPa | 0 mm | - | 734 W/m² | - |
| 1777545126 | 16.67° C | 35% | 1031.3 hPa | 0 mm | - | 738 W/m² | - |
| 1777544946 | 17.22° C | 36% | 1031.1 hPa | 0 mm | - | 738 W/m² | - |
| 1777544766 | 16.67° C | 36% | 1031.3 hPa | 0 mm | - | 729 W/m² | - |
| 1777544586 | 16.67° C | 33% | 1031.2 hPa | 0 mm | - | 748 W/m² | - |
| 1777544406 | 16.67° C | 34% | 1031.2 hPa | 0 mm | - | 735 W/m² | - |
| 1777544226 | 17.22° C | 38% | 1031.2 hPa | 0 mm | - | 726 W/m² | - |
| 1777544046 | 17.22° C | 35% | 1031.4 hPa | 0 mm | - | 710 W/m² | - |
| 1777543866 | 17.22° C | 34% | 1031.1 hPa | 0 mm | - | 709 W/m² | - |
| 1777543686 | 17.22° C | 37% | 1031.2 hPa | 0 mm | - | 709 W/m² | - |
| 1777543506 | 16.67° C | 36% | 1031.1 hPa | 0 mm | - | 705 W/m² | - |
| 1777543146 | 17.22° C | 37% | 1031.2 hPa | 0 mm | - | 690 W/m² | - |
| 1777542966 | 17.22° C | 38% | 1031.3 hPa | 0 mm | - | 691 W/m² | - |
| 1777542606 | 16.67° C | 39% | 1031.4 hPa | 0 mm | - | 672 W/m² | - |
* Rain latest hour (hover to see other rain measurements)
** Current wind speed in m/s (hover to see current wind gust speed)